GW5277 Weather Reports


time (UTC)temp
F
wind
direction
speed
knots
gust
knots
rain 1hr
in
rain 24hr
in
rain mn
in
humidity
%
barometer
mb
20260508012722 51 258 0.9 0.9 0.00 0.00 0.00 51 1015.3
20260508012218 51 271 0.9 1.7 0.00 0.00 0.00 53 1015.1
20260508011717 52 292 3.5 3.5 0.00 0.00 0.00 47 1015.1
20260508011214 52 299 2.6 3.5 0.00 0.00 0.00 50 1015.1
20260508010710 52 273 0.9 5.2 0.00 0.00 0.00 49 1015.0
20260508010208 52 280 1.7 2.6 0.00 0.00 0.00 49 1014.8
20260508005700 52 251 4.3 5.2 0.00 0.00 0.00 47 1014.9
20260508005157 53 284 3.5 3.5 0.00 0.00 0.00 49 1014.8
20260508004652 53 273 0.9 2.6 0.00 0.00 0.00 45 1014.8
20260508004149 53 260 1.7 2.6 0.00 0.00 0.00 49 1014.5
20260508003645 54 265 1.7 1.7 0.00 0.00 0.00 45 1014.5
20260508003142 53 268 1.7 2.6 0.00 0.00 0.00 45 1014.6
20260508002638 54 261 1.7 2.6 0.00 0.00 0.00 45 1014.3
20260508002137 54 273 3.5 5.2 0.00 0.00 0.00 45 1014.1
20260508001631 55 267 1.7 2.6 0.00 0.00 0.00 43 1014.1
20260508001128 55 249 2.6 2.6 0.00 0.00 0.00 45 1013.9
20260508000623 55 287 3.5 5.2 0.00 0.00 0.00 44 1014.0
20260508000121 55 294 4.3 5.2 0.00 0.00 0.00 43 1014.0
20260507235618 56 272 2.6 7.0 0.00 0.00 0.00 42 1013.8
20260507235116 56 282 2.6 2.6 0.00 0.00 0.00 43 1013.8
20260507234612 56 231 3.5 8.7 0.00 0.00 0.00 42 1013.8
20260507234108 56 222 0.9 6.1 0.00 0.00 0.00 44 1013.9
20260507233605 58 316 7.0 8.7 0.00 0.00 0.00 41 1013.6
20260507233104 59 243 0.9 1.7 0.00 0.00 0.00 46 1013.3
20260507232600 58 285 0.9 0.9 0.00 0.00 0.00 42 1013.4
20260507232057 59 328 3.5 3.5 0.00 0.00 0.00 43 1013.4
20260507231553 59 250 1.7 2.6 0.00 0.00 0.00 42 1013.3
20260507231051 59 281 0.9 2.6 0.00 0.00 0.00 43 1013.1
20260507230547 59 258 1.7 1.7 0.00 0.00 0.00 43 1013.3
20260507230044 59 241 2.6 7.0 0.00 0.00 0.00 43 1013.2
20260507225539 59 264 2.6 3.5 0.00 0.00 0.00 43 1013.2
20260507225035 57 261 2.6 2.6 0.00 0.00 0.00 44 1013.3
20260507224532 58 269 2.6 5.2 0.00 0.00 0.00 41 1013.2
20260507224028 59 287 4.3 8.7 0.00 0.00 0.00 40 1013.2
20260507223524 60 269 6.1 7.0 0.00 0.00 0.00 41 1013.2
20260507223021 61 253 3.5 6.1 0.00 0.00 0.00 43 1013.0
20260507222518 60 260 2.6 6.1 0.00 0.00 0.00 41 1013.0
20260507222014 60 256 2.6 5.2 0.00 0.00 0.00 44 1013.1
20260507221511 59 274 2.6 3.5 0.00 0.00 0.00 46 1013.0
20260507221008 59 250 4.3 7.8 0.00 0.00 0.00 46 1013.0
20260507220506 59 263 3.5 3.5 0.00 0.00 0.00 44 1012.9
20260507220003 59 272 1.7 3.5 0.00 0.00 0.00 45 1012.6
20260507215459 59 311 3.5 5.2 0.00 0.00 0.00 42 1012.8
20260507214957 59 356 0.9 3.5 0.00 0.00 0.00 44 1012.6
20260507214454 58 251 0.9 1.7 0.00 0.00 0.00 50 1012.8
20260507213949 58 302 2.6 3.5 0.00 0.00 0.00 44 1012.7
20260507213445 60 228 0.0 1.7 0.00 0.00 0.00 48 1012.6
20260507212943 60 249 0.9 1.7 0.00 0.00 0.00 46 1012.5
20260507212438 59 300 1.7 3.5 0.00 0.00 0.00 44 1012.4
20260507211936 59 256 3.5 7.8 0.00 0.00 0.00 46 1012.5
20260507211427 60 286 1.7 5.2 0.00 0.00 0.00 46 1012.6
20260507210923 61 325 2.6 5.2 0.00 0.00 0.00 45 1012.4
20260507210420 59 309 0.9 2.6 0.00 0.00 0.00 48 1012.5
20260507205917 58 291 4.3 6.1 0.00 0.00 0.00 45 1012.7
20260507205414 58 302 2.6 6.1 0.00 0.00 0.00 46 1012.6
20260507204910 59 280 1.7 6.1 0.00 0.00 0.00 44 1012.4
20260507204407 59 269 1.7 1.7 0.00 0.00 0.00 51 1012.4
20260507203904 59 253 1.7 3.5 0.00 0.00 0.00 48 1012.4
20260507203402 60 264 1.7 5.2 0.00 0.00 0.00 48 1012.3
20260507202858 59 301 2.6 2.6 0.00 0.00 0.00 47 1012.5
20260507202354 60 261 3.5 5.2 0.00 0.00 0.00 46 1012.5
20260507201850 60 259 4.3 6.1 0.00 0.00 0.00 43 1012.6
20260507201345 61 275 6.1 8.7 0.00 0.00 0.00 47 1012.5
20260507200843 61 268 4.3 6.1 0.00 0.00 0.00 47 1012.7
20260507200338 61 283 4.3 6.1 0.00 0.00 0.00 47 1012.6
20260507195834 60 241 5.2 7.8 0.00 0.00 0.00 48 1012.8
20260507195332 60 274 7.0 8.7 0.00 0.00 0.00 45 1012.9
20260507194829 59 290 2.6 7.8 0.00 0.00 0.00 49 1012.8
20260507194325 58 311 2.6 3.5 0.00 0.00 0.00 45 1013.1
20260507193822 59 265 4.3 7.0 0.00 0.00 0.00 47 1013.3
20260507193319 60 246 2.6 7.0 0.00 0.00 0.00 50 1012.9
20260507192814 62 226 4.3 6.1 0.00 0.00 0.00 52 1013.1
20260507192312 62 232 7.0 8.7 0.00 0.00 0.00 52 1013.3
20260507191808 62 173 4.3 7.0 0.00 0.00 0.00 45 1013.1
20260507191304 59 200 0.9 3.5 0.00 0.00 0.00 52 1013.2
20260507190801 58 265 4.3 7.0 0.00 0.00 0.00 48 1013.3
20260507190300 59 274 1.7 6.1 0.00 0.00 0.00 53 1013.2
20260507185758 60 239 3.5 7.0 0.00 0.00 0.00 51 1013.3
20260507185254 62 205 3.5 6.1 0.00 0.00 0.00 46 1013.2
20260507184752 61 252 1.7 6.1 0.00 0.00 0.00 51 1013.3
20260507184250 60 215 5.2 7.8 0.00 0.00 0.00 52 1013.1
20260507183747 58 117 2.6 7.0 0.00 0.00 0.00 53 1013.3
20260507183244 59 212 5.2 7.8 0.00 0.00 0.00 48 1013.2
20260507182742 62 169 3.5 6.1 0.00 0.00 0.00 46 1013.2
20260507182241 60 221 4.3 7.0 0.00 0.00 0.00 54 1013.4
20260507181739 59 308 3.5 5.2 0.00 0.00 0.00 46 1013.1
20260507181235 58 274 3.5 5.2 0.00 0.00 0.00 52 1013.3
20260507180732 58 290 0.9 3.5 0.00 0.00 0.00 54 1013.5
20260507180229 60 226 0.0 5.2 0.00 0.00 0.00 46 1013.4
20260507175724 61 174 8.7 11.3 0.00 0.00 0.00 49 1013.3
20260507175221 60 249 2.6 7.0 0.00 0.00 0.00 55 1013.6
20260507174719 61 252 1.7 11.3 0.00 0.00 0.00 53 1013.4
20260507174217 61 95 0.9 5.2 0.00 0.00 0.00 57 1013.5
20260507173714 61 302 6.1 13.0 0.00 0.00 0.00 47 1013.5
20260507173210 60 169 2.6 3.5 0.00 0.00 0.00 48 1013.7
20260507172707 60 265 1.7 6.1 0.00 0.00 0.00 46 1013.8
20260507172204 61 150 6.1 7.8 0.00 0.00 0.00 54 1014.0
20260507171704 59 265 4.3 5.2 0.00 0.00 0.00 53 1014.1
20260507171202 60 322 1.7 3.5 0.00 0.00 0.00 43 1014.1
20260507170658 60 309 4.3 8.7 0.00 0.00 0.00 51 1014.0
20260507170156 61 204 2.6 5.2 0.00 0.00 0.00 51 1014.0
20260507165651 60 175 1.7 3.5 0.00 0.00 0.00 54 1014.1
20260507165148 60 177 3.5 5.2 0.00 0.00 0.00 49 1014.3
20260507164644 60 247 1.7 6.1 0.00 0.00 0.00 57 1014.5
20260507164141 60 268 2.6 6.1 0.00 0.00 0.00 51 1014.4
20260507163638 60 223 1.7 5.2 0.00 0.00 0.00 50 1014.5
20260507163136 58 275 0.0 2.6 0.00 0.00 0.00 51 1014.5
20260507162632 58 240 1.7 6.1 0.00 0.00 0.00 55 1014.5
20260507162128 58 300 0.9 2.6 0.00 0.00 0.00 51 1014.6
20260507161624 56 279 0.9 2.6 0.00 0.00 0.00 53 1014.6
20260507161121 58 291 3.5 7.8 0.00 0.00 0.00 48 1014.6
20260507160617 57 236 0.9 2.6 0.00 0.00 0.00 54 1014.6
20260507160114 56 295 0.0 0.9 0.00 0.00 0.00 51 1014.7
20260507155609 57 264 1.7 2.6 0.00 0.00 0.00 55 1014.8
20260507155106 57 323 4.3 6.1 0.00 0.00 0.00 51 1014.8
20260507154603 54 252 0.9 3.5 0.00 0.00 0.00 58 1014.6
20260507154100 55 303 3.5 5.2 0.00 0.00 0.00 57 1014.8
20260507153557 57 277 4.3 6.1 0.00 0.00 0.00 50 1014.9
20260507153053 56 1 1.7 2.6 0.00 0.00 0.00 54 1015.1
20260507152549 57 319 2.6 5.2 0.00 0.00 0.00 51 1014.9
20260507152046 56 308 1.7 3.5 0.00 0.00 0.00 52 1014.8
20260507151542 56 234 3.5 5.2 0.00 0.00 0.00 53 1014.9
20260507151039 56 243 5.2 6.1 0.00 0.00 0.00 59 1015.2
20260507150531 56 270 2.6 3.5 0.00 0.00 0.00 58 1015.2
20260507150028 54 170 0.0 1.7 0.00 0.00 0.00 58 1015.1
20260507145527 55 248 0.9 2.6 0.00 0.00 0.00 59 1015.2
20260507145026 58 231 1.7 2.6 0.00 0.00 0.00 51 1015.3
20260507144522 56 57 0.9 1.7 0.00 0.00 0.00 52 1015.4
20260507144020 55 272 3.5 3.5 0.00 0.00 0.00 54 1015.5
20260507143517 56 329 4.3 7.8 0.00 0.00 0.00 58 1015.5
20260507143014 56 139 4.3 7.0 0.00 0.00 0.00 55 1015.4
20260507142509 56 40 3.5 3.5 0.00 0.00 0.00 55 1015.6
20260507142007 56 284 3.5 5.2 0.00 0.00 0.00 56 1015.8
20260507141502 54 146 0.0 2.6 0.00 0.00 0.00 57 1015.9
20260507140959 54 266 1.7 2.6 0.00 0.00 0.00 60 1015.8
20260507140456 56 213 0.9 2.6 0.00 0.00 0.00 65 1016.0
20260507135953 55 238 2.6 5.2 0.00 0.00 0.00 62 1016.0
20260507135450 56 193 2.6 5.2 0.00 0.00 0.00 60 1016.0
20260507134948 56 128 0.9 2.6 0.00 0.00 0.00 61 1016.0
20260507134444 55 97 0.0 1.7 0.00 0.00 0.00 59 1016.3
20260507133940 55 27 1.7 2.6 0.00 0.00 0.00 62 1016.4
20260507133436 55 176 2.6 2.6 0.00 0.00 0.00 65 1016.2
20260507132935 55 284 0.0 1.7 0.00 0.00 0.00 63 1016.1
20260507132430 54 226 0.0 1.7 0.00 0.00 0.00 63 1016.5
20260507131927 53 224 1.7 1.7 0.00 0.00 0.00 63 1016.2
20260507131424 53 137 1.7 3.5 0.00 0.00 0.00 71 1016.3
20260507130921 54 80 0.9 1.7 0.00 0.00 0.00 65 1016.2
20260507130418 53 105 1.7 1.7 0.00 0.00 0.00 75 1016.3
20260507125917 52 85 0.9 1.7 0.00 0.00 0.00 74 1016.3
20260507125415 51 115 2.6 3.5 0.00 0.00 0.00 76 1016.2
20260507124912 50 126 2.6 3.5 0.00 0.00 0.00 76 1016.2
20260507124407 51 112 1.7 2.6 0.00 0.00 0.00 76 1016.4
20260507123906 50 110 2.6 3.5 0.00 0.00 0.00 75 1016.1
20260507123403 51 106 1.7 2.6 0.00 0.00 0.00 78 1016.3
20260507122859 50 131 0.9 2.6 0.00 0.00 0.00 78 1016.2
20260507122355 51 105 2.6 2.6 0.00 0.00 0.00 76 1016.2
20260507121851 53 51 0.0 0.9 0.00 0.00 0.00 78 1016.3
20260507121347 53 318 0.0 0.0 0.00 0.00 0.00 78 1016.3
20260507120844 52 318 0.0 0.0 0.00 0.00 0.00 80 1016.6
20260507120340 53 317 0.0 0.0 0.00 0.00 0.00 78 1016.4
20260507115836 54 315 0.0 0.0 0.00 0.00 0.00 74 1016.4
20260507115332 52 315 0.0 0.0 0.00 0.00 0.00 79 1016.4
20260507114828 49 315 0.0 0.0 0.00 0.00 0.00 87 1016.5
20260507114325 47 315 0.0 0.0 0.00 0.00 0.00 94 1016.4
20260507113823 47 315 0.0 0.0 0.00 0.00 0.00 93 1016.3
20260507113319 46 315 0.0 0.0 0.00 0.00 0.00 95 1016.2
20260507112817 44 315 0.0 0.0 0.00 0.00 0.00 97 1016.1
20260507112314 42 315 0.0 0.0 0.00 0.00 0.00 97 1016.1
20260507111812 42 315 0.0 0.0 0.00 0.00 0.00 97 1015.9
20260507111308 43 315 0.0 0.0 0.00 0.00 0.00 97 1015.9
20260507110804 42 280 0.0 0.0 0.00 0.00 0.00 98 1015.8
20260507110301 40 280 0.0 0.0 0.00 0.00 0.00 98 1015.8
20260507105758 39 280 0.0 0.0 0.00 0.00 0.00 98 1015.8
20260507105254 39 280 0.0 0.0 0.00 0.00 0.00 98 1015.8
20260507104751 39 280 0.0 0.0 0.00 0.00 0.00 98 1015.6
20260507104248 39 280 0.0 0.0 0.00 0.00 0.00 98 1015.8
20260507103743 40 280 0.0 0.0 0.00 0.00 0.00 98 1015.7
20260507103234 40 280 0.0 0.0 0.00 0.00 0.00 98 1015.7
20260507102731 40 280 0.0 0.0 0.00 0.00 0.00 98 1015.6
20260507102228 40 280 0.0 0.0 0.00 0.00 0.00 98 1015.5
20260507101724 40 280 0.0 0.0 0.00 0.00 0.00 98 1015.6
20260507101219 40 280 0.0 0.0 0.00 0.00 0.00 98 1015.5
20260507100716 40 280 0.0 0.0 0.00 0.00 0.00 98 1015.7
20260507100215 40 280 0.0 0.0 0.00 0.00 0.00 98 1015.6
20260507095713 40 280 0.0 0.0 0.00 0.00 0.00 98 1015.4
20260507095209 40 280 0.0 0.0 0.00 0.00 0.00 97 1015.6
20260507094706 41 280 0.0 0.0 0.00 0.00 0.00 97 1015.5
20260507094203 41 280 0.0 0.0 0.00 0.00 0.00 97 1015.5
20260507093659 41 280 0.0 0.0 0.00 0.00 0.00 97 1015.3
20260507093158 41 281 0.0 0.0 0.00 0.00 0.00 97 1015.3
20260507092654 41 280 0.0 0.0 0.00 0.00 0.00 97 1015.5
20260507092151 41 280 0.0 0.0 0.00 0.00 0.00 96 1015.4
20260507091647 41 281 0.0 0.0 0.00 0.00 0.00 96 1015.3
20260507091143 42 270 0.0 0.0 0.00 0.00 0.00 95 1015.2
20260507090639 43 275 0.0 0.0 0.00 0.00 0.00 95 1015.3
20260507090137 43 274 0.0 0.0 0.00 0.00 0.00 94 1015.4
20260507085633 44 274 0.0 0.0 0.00 0.00 0.00 94 1015.4
20260507085130 44 274 0.0 0.0 0.00 0.00 0.00 94 1015.3
20260507084627 44 274 0.0 0.0 0.00 0.00 0.00 93 1015.3
20260507084124 45 274 0.0 0.0 0.00 0.00 0.00 92 1015.4
20260507083620 45 274 0.0 0.0 0.00 0.00 0.00 92 1015.4
20260507083117 46 271 0.0 0.0 0.00 0.00 0.00 91 1015.6
20260507082613 46 267 0.0 0.0 0.00 0.00 0.00 90 1015.5
20260507082110 47 268 0.0 0.9 0.00 0.00 0.00 91 1015.4
20260507081606 47 267 0.0 0.0 0.00 0.00 0.00 91 1015.4
20260507081103 47 269 0.0 0.0 0.00 0.00 0.00 90 1015.2
20260507080559 47 269 0.0 0.0 0.00 0.00 0.00 90 1015.3
20260507080055 47 270 0.0 0.0 0.00 0.00 0.00 90 1015.5
20260507075550 47 264 0.0 0.0 0.00 0.00 0.00 89 1015.3
20260507075047 47 264 0.0 0.0 0.00 0.00 0.00 90 1015.2
20260507074544 47 264 0.0 0.0 0.00 0.00 0.00 91 1015.3
20260507074043 48 264 0.0 0.0 0.00 0.00 0.00 91 1015.2
20260507073538 48 264 0.0 0.0 0.00 0.00 0.00 90 1015.1
20260507073035 48 264 0.0 0.9 0.00 0.00 0.00 89 1015.1
20260507072533 48 265 0.9 0.9 0.00 0.00 0.00 88 1015.2
20260507072030 48 266 0.0 0.9 0.00 0.00 0.00 88 1015.2
20260507071527 48 292 0.0 0.0 0.00 0.00 0.00 90 1015.0
20260507071024 48 292 0.0 0.9 0.00 0.00 0.00 89 1015.2
20260507070521 48 277 0.0 0.0 0.00 0.00 0.00 90 1015.1
20260507070018 48 277 0.0 0.9 0.00 0.00 0.00 90 1015.1
20260507065514 48 280 0.0 0.9 0.00 0.00 0.00 90 1015.1
20260507065011 48 278 0.0 0.0 0.00 0.00 0.00 91 1015.1
20260507064509 48 278 0.9 1.7 0.00 0.00 0.00 91 1015.1
20260507064007 48 291 0.9 1.7 0.00 0.00 0.00 91 1015.2
20260507063504 48 272 0.0 0.0 0.00 0.00 0.00 91 1015.2
20260507063001 48 272 0.0 0.0 0.00 0.00 0.00 91 1015.2
20260507062458 48 272 0.0 0.0 0.00 0.00 0.00 90 1015.1
20260507061955 48 272 0.0 0.0 0.00 0.00 0.00 88 1015.1
20260507061453 48 272 0.0 0.0 0.00 0.00 0.00 89 1015.3
20260507060951 48 273 0.0 0.0 0.00 0.00 0.00 91 1015.2
20260507060448 48 274 0.0 0.0 0.00 0.00 0.00 91 1015.1
20260507055944 49 274 0.0 0.0 0.00 0.00 0.00 90 1015.1
20260507055440 49 273 0.0 0.0 0.00 0.00 0.00 90 1015.3
20260507054937 49 273 0.0 0.0 0.00 0.00 0.00 89 1015.4
20260507054433 49 274 0.0 0.0 0.00 0.00 0.00 88 1015.5
20260507053930 49 273 0.0 0.0 0.00 0.00 0.00 87 1015.5
20260507053428 49 273 0.0 0.0 0.00 0.00 0.00 86 1015.4
20260507052926 49 274 0.0 0.0 0.00 0.00 0.00 86 1015.5
20260507052423 49 280 0.0 0.9 0.00 0.00 0.00 86 1015.6
20260507051920 49 300 0.0 0.0 0.00 0.00 0.00 85 1015.6
20260507051418 49 300 0.0 0.9 0.00 0.00 0.00 85 1015.7
20260507050915 49 290 0.9 1.7 0.00 0.00 0.00 88 1015.7
20260507050411 49 349 0.0 1.7 0.00 0.00 0.00 90 1015.6
20260507045908 49 320 2.6 3.5 0.00 0.00 0.00 94 1015.7
20260507045405 50 319 0.0 2.6 0.00 0.00 0.00 96 1015.6
20260507044902 50 358 3.5 6.1 0.00 0.00 0.00 98 1015.7
20260507044358 51 285 1.7 1.7 0.00 0.00 0.00 98 1015.9
20260507043854 50 315 0.0 0.0 0.00 0.00 0.00 98 1015.6
20260507043351 50 315 0.0 0.0 0.00 0.00 0.00 98 1015.5
20260507042847 50 315 0.0 0.0 0.00 0.00 0.00 98 1015.3
20260507042343 50 315 0.0 0.0 0.00 0.00 0.00 98 1015.5
20260507041840 50 315 0.0 0.0 0.00 0.00 0.00 98 1015.5
20260507041337 51 315 0.0 0.0 0.00 0.00 0.00 98 1015.3
20260507040829 51 315 0.0 0.0 0.00 0.00 0.00 98 1015.5
20260507040325 51 315 0.0 0.0 0.00 0.00 0.00 98 1015.5
20260507035821 51 301 0.9 1.7 0.00 0.00 0.00 98 1015.4
20260507035316 51 293 1.7 1.7 0.00 0.00 0.00 98 1015.4
20260507034814 51 274 0.0 0.0 0.00 0.00 0.00 98 1015.1
20260507034311 51 274 0.0 0.0 0.00 0.00 0.00 98 1015.1
20260507033809 51 273 0.0 0.0 0.00 0.00 0.00 98 1015.6
20260507033307 51 213 0.0 0.0 0.00 0.00 0.00 98 1015.6
20260507032803 51 207 0.0 0.0 0.00 0.00 0.00 98 1015.4
20260507032259 51 198 0.0 0.0 0.00 0.00 0.00 98 1015.3
20260507031756 51 198 0.0 0.0 0.00 0.00 0.00 98 1015.4
20260507031253 51 221 0.0 0.0 0.00 0.00 0.00 98 1015.9
20260507030749 51 224 0.0 0.0 0.00 0.00 0.00 97 1015.8
20260507030247 51 224 0.0 0.0 0.00 0.00 0.00 98 1015.7
20260507025744 51 225 0.0 0.0 0.00 0.00 0.00 97 1015.7
20260507025241 51 225 0.0 0.0 0.00 0.00 0.00 97 1015.5
20260507024739 51 224 0.0 0.0 0.00 0.00 0.00 97 1015.1
20260507024236 51 224 0.0 0.0 0.00 0.00 0.00 97 1015.2
20260507023732 51 224 0.0 0.0 0.00 0.00 0.00 97 1015.3
20260507023229 51 224 0.0 0.0 0.00 0.00 0.00 97 1015.2
20260507022726 51 224 0.0 0.0 0.00 0.00 0.00 97 1015.0
20260507022222 51 224 0.0 0.0 0.00 0.00 0.00 97 1015.0
20260507021719 51 226 0.0 0.0 0.00 0.00 0.00 97 1015.2
20260507021214 51 226 0.0 0.0 0.00 0.00 0.00 97 1015.1
20260507020713 51 226 0.0 0.0 0.00 0.00 0.00 97 1014.9
20260507020208 51 226 0.0 0.0 0.00 0.00 0.00 97 1014.9
20260507015707 51 141 0.0 0.0 0.00 0.00 0.00 97 1014.7
20260507015204 51 141 0.0 0.0 0.00 0.00 0.00 97 1015.0
20260507014700 51 139 0.0 0.0 0.00 0.00 0.00 97 1015.0
20260507014156 51 137 0.0 0.0 0.00 0.00 0.00 97 1014.8
20260507013653 51 136 0.0 0.0 0.00 0.00 0.00 97 1014.7
20260507013150 51 136 0.0 0.0 0.00 0.00 0.00 97 1014.7